Starlink 34852

operational
NORAD ID: 66135 Int'l Des: 2025-237 Owner: SPXS Country: US Constellation: starlink
LEOCIRCULAR

关于 Starlink 34852

正在加载描述...

实时位置

正在加载3D地球...

即将过境

高度历史

Altitude vs Time

uPlot chart will show altitude changes over time

两行轨道根数

1 66135C 25237X 25298.72618056 -.01200100 00000+0 -18712-2 0 2989
2 66135 53.1547 319.2284 0000883 61.4875 155.9057 16.04547963 15
Epoch: Oct 25, 2025 • Age: 155 hours

当前状态

高度 296.9 km
速度 7.73 km/s
星下点 -29.09°S, 77.38°W
发射日期 Oct 22, 2025
运行时间 8 days
类型 internet

技术详情

分类 Payload
质量 575.00 kg
干质量 530.00 kg
总质量 575.00 kg
长度 0.30 m
直径 4.10 m
跨度 29.00 m
形状 Box + pan
制造商 SPXS
平台类型 Starlink V2MO
阶段状态 In Orbit
所有者/国家 SPXS/US

大型星座

Loading constellations...